カタログに戻る

ATLAS CENTAUR R/B

運用中GTO
NORAD 7545·ROCKET BODY·🇺🇸 United States

打ち上げ Nov 21, 1974 から Cape Canaveral Space Force Station

Loading…

TLE

経年Source: Space-Track

元期: Sep 14, 2026, 17:59 UTC

1 07545U 74093B   26257.74998187 -.00000119  00000-0  47639-3 0  9993
2 07545  26.4068  23.5967 7203574  10.2936 358.6576  2.21272901288880

AllMySatでATLAS CENTAUR R/Bをリアルタイム追跡

Download on the App Store